Time,TemperatureF,DewpointF,PressureIn,WindDirection,WindDirectionDegrees,WindSpeedMPH,WindSpeedGustMPH,Humidity,HourlyPrecipIn,Conditions,Clouds,dailyrainin,SoftwareType,DateUTC
2013-03-12 00:02:00,60.0,48.0,-100.00,ESE,105,0.0,3.0,65,0.00,,,0.00,,2013-03-12 10:02:00,
2013-03-12 00:11:00,61.0,51.0,-100.00,North,8,0.0,0.0,69,0.00,,,-99.99,,2013-03-12 10:11:00,
2013-03-12 00:33:00,61.0,51.0,-100.00,North,8,0.0,0.0,69,0.00,,,-99.99,,2013-03-12 10:33:00,
2013-03-12 00:42:00,61.0,51.0,-100.00,North,8,0.0,0.0,69,0.00,,,-99.99,,2013-03-12 10:42:00,
2013-03-12 00:52:00,61.0,51.0,-100.00,North,8,0.0,0.0,69,0.00,,,-99.99,,2013-03-12 10:52:00,
2013-03-12 01:02:00,61.0,51.0,-100.00,North,8,0.0,0.0,69,0.00,,,-99.99,,2013-03-12 11:02:00,
2013-03-12 01:11:00,58.0,48.0,-100.00,East,97,0.0,0.0,69,0.00,,,0.00,,2013-03-12 11:11:00,
2013-03-12 01:32:00,58.0,48.0,-100.00,East,97,0.0,0.0,69,0.00,,,0.00,,2013-03-12 11:32:00,
2013-03-12 01:42:00,58.0,48.0,-100.00,East,97,0.0,0.0,69,0.00,,,0.00,,2013-03-12 11:42:00,
2013-03-12 01:52:00,58.0,48.0,-100.00,East,97,0.0,0.0,69,0.00,,,0.00,,2013-03-12 11:52:00,
2013-03-12 02:02:00,58.0,48.0,-100.00,East,97,0.0,0.0,69,0.00,,,0.00,,2013-03-12 12:02:00,
2013-03-12 02:11:00,59.0,48.0,-100.00,East,86,0.0,2.0,68,0.00,,,0.00,,2013-03-12 12:11:00,
2013-03-12 02:32:00,59.0,48.0,-100.00,East,86,0.0,2.0,68,0.00,,,0.00,,2013-03-12 12:32:00,
2013-03-12 02:42:00,59.0,48.0,-100.00,East,86,0.0,2.0,68,0.00,,,0.00,,2013-03-12 12:42:00,
2013-03-12 02:52:00,59.0,48.0,-100.00,East,86,0.0,2.0,68,0.00,,,0.00,,2013-03-12 12:52:00,
2013-03-12 03:02:00,59.0,48.0,-100.00,East,86,0.0,2.0,68,0.00,,,0.00,,2013-03-12 13:02:00,
2013-03-12 03:11:00,59.0,50.0,-100.00,ESE,102,0.0,3.0,72,0.00,,,0.00,,2013-03-12 13:11:00,
2013-03-12 03:43:00,59.0,50.0,-100.00,ESE,102,0.0,3.0,72,0.00,,,0.00,,2013-03-12 13:43:00,
2013-03-12 03:52:00,59.0,50.0,-100.00,ESE,102,0.0,3.0,72,0.00,,,0.00,,2013-03-12 13:52:00,
2013-03-12 04:02:00,59.0,50.0,-100.00,ESE,102,0.0,3.0,72,0.00,,,0.00,,2013-03-12 14:02:00,
2013-03-12 04:11:00,57.0,50.0,-100.00,NE,35,0.0,0.0,76,0.00,,,0.00,,2013-03-12 14:11:00,
2013-03-12 04:33:00,57.0,50.0,-100.00,NE,35,0.0,0.0,76,0.00,,,0.00,,2013-03-12 14:33:00,
2013-03-12 04:42:00,57.0,50.0,-100.00,NE,35,0.0,0.0,76,0.00,,,0.00,,2013-03-12 14:42:00,
2013-03-12 04:53:00,57.0,50.0,-100.00,NE,35,0.0,0.0,76,0.00,,,0.00,,2013-03-12 14:53:00,
2013-03-12 05:02:00,57.0,50.0,-100.00,NE,35,0.0,0.0,76,0.00,,,0.00,,2013-03-12 15:02:00,
2013-03-12 05:11:00,58.0,52.0,-100.00,ENE,62,0.0,2.0,81,0.00,,,0.00,,2013-03-12 15:11:00,
2013-03-12 05:42:00,58.0,52.0,-100.00,ENE,62,0.0,2.0,81,0.00,,,0.00,,2013-03-12 15:42:00,
2013-03-12 05:53:00,58.0,52.0,-100.00,ENE,62,0.0,2.0,81,0.00,,,0.00,,2013-03-12 15:53:00,
2013-03-12 06:02:00,58.0,52.0,-100.00,ENE,62,0.0,2.0,81,0.00,,,0.00,,2013-03-12 16:02:00,
2013-03-12 06:11:00,57.0,50.0,-100.00,ESE,118,0.0,0.0,77,0.00,,,0.00,,2013-03-12 16:11:00,
2013-03-12 06:43:00,57.0,50.0,-100.00,ESE,118,0.0,0.0,77,0.00,,,0.00,,2013-03-12 16:43:00,
2013-03-12 06:53:00,57.0,50.0,-100.00,ESE,118,0.0,0.0,77,0.00,,,0.00,,2013-03-12 16:53:00,
2013-03-12 07:02:00,57.0,50.0,-100.00,ESE,118,0.0,0.0,77,0.00,,,0.00,,2013-03-12 17:02:00,
2013-03-12 07:11:00,58.0,52.0,-100.00,NNE,26,0.0,4.0,79,0.00,,,0.00,,2013-03-12 17:11:00,
2013-03-12 07:44:00,58.0,52.0,-100.00,NNE,26,0.0,4.0,79,0.00,,,0.00,,2013-03-12 17:44:00,
2013-03-12 07:53:00,58.0,52.0,-100.00,NNE,26,0.0,4.0,79,0.00,,,0.00,,2013-03-12 17:53:00,
2013-03-12 08:02:00,58.0,52.0,-100.00,NNE,26,0.0,4.0,79,0.00,,,0.00,,2013-03-12 18:02:00,
2013-03-12 08:11:00,66.0,56.0,-100.00,NNE,19,0.0,4.0,69,0.00,,,0.00,,2013-03-12 18:11:00,
2013-03-12 08:43:00,66.0,56.0,-100.00,NNE,19,0.0,4.0,69,0.00,,,0.00,,2013-03-12 18:43:00,
2013-03-12 08:53:00,66.0,56.0,-100.00,NNE,19,0.0,4.0,69,0.00,,,0.00,,2013-03-12 18:53:00,
2013-03-12 09:03:00,66.0,56.0,-100.00,NNE,19,0.0,4.0,69,0.00,,,0.00,,2013-03-12 19:03:00,
2013-03-12 09:11:00,72.0,51.0,-100.00,NE,56,0.0,5.0,47,0.00,,,0.00,,2013-03-12 19:11:00,
2013-03-12 09:43:00,72.0,51.0,-100.00,NE,56,0.0,5.0,47,0.00,,,0.00,,2013-03-12 19:43:00,
2013-03-12 09:53:00,72.0,51.0,-100.00,NE,56,0.0,5.0,47,0.00,,,0.00,,2013-03-12 19:53:00,
2013-03-12 10:02:00,72.0,51.0,-100.00,NE,56,0.0,5.0,47,0.00,,,0.00,,2013-03-12 20:02:00,
2013-03-12 10:11:00,76.0,53.0,-100.00,West,278,0.0,6.0,45,0.00,,,0.00,,2013-03-12 20:11:00,
2013-03-12 10:33:00,76.0,53.0,-100.00,West,278,0.0,6.0,45,0.00,,,0.00,,2013-03-12 20:33:00,
2013-03-12 10:42:00,76.0,53.0,-100.00,West,278,0.0,6.0,45,0.00,,,0.00,,2013-03-12 20:42:00,
2013-03-12 10:53:00,76.0,53.0,-100.00,West,278,0.0,6.0,45,0.00,,,0.00,,2013-03-12 20:53:00,
2013-03-12 11:02:00,76.0,53.0,-100.00,West,278,0.0,6.0,45,0.00,,,0.00,,2013-03-12 21:02:00,
2013-03-12 11:11:00,74.0,54.0,-100.00,WNW,293,1.0,8.0,49,0.00,,,0.00,,2013-03-12 21:11:00,
2013-03-12 11:33:00,74.0,54.0,-100.00,WNW,293,1.0,8.0,49,0.00,,,0.00,,2013-03-12 21:33:00,
2013-03-12 11:43:00,74.0,54.0,-100.00,WNW,293,1.0,8.0,49,0.00,,,0.00,,2013-03-12 21:43:00,
2013-03-12 11:52:00,74.0,54.0,-100.00,WNW,293,1.0,8.0,49,0.00,,,0.00,,2013-03-12 21:52:00,
2013-03-12 12:02:00,74.0,54.0,-100.00,WNW,293,1.0,8.0,49,0.00,,,0.00,,2013-03-12 22:02:00,
2013-03-12 12:11:00,74.0,52.0,-100.00,East,86,2.0,11.0,47,0.00,,,0.00,,2013-03-12 22:11:00,
2013-03-12 12:33:00,74.0,52.0,-100.00,East,86,2.0,11.0,47,0.00,,,0.00,,2013-03-12 22:33:00,
2013-03-12 12:43:00,74.0,52.0,-100.00,East,86,2.0,11.0,47,0.00,,,0.00,,2013-03-12 22:43:00,
2013-03-12 12:53:00,74.0,52.0,-100.00,East,86,2.0,11.0,47,0.00,,,0.00,,2013-03-12 22:53:00,
2013-03-12 13:02:00,74.0,52.0,-100.00,East,86,2.0,11.0,47,0.00,,,0.00,,2013-03-12 23:02:00,
2013-03-12 13:11:00,76.0,55.0,-100.00,NNE,15,3.0,11.0,49,0.00,,,0.00,,2013-03-12 23:11:00,
2013-03-12 13:34:00,76.0,55.0,-100.00,NNE,15,3.0,11.0,49,0.00,,,0.00,,2013-03-12 23:34:00,
2013-03-12 13:43:00,76.0,55.0,-100.00,NNE,15,3.0,11.0,49,0.00,,,0.00,,2013-03-12 23:43:00,
2013-03-12 13:52:00,76.0,55.0,-100.00,NNE,15,3.0,11.0,49,0.00,,,0.00,,2013-03-12 23:52:00,
2013-03-12 14:02:00,76.0,55.0,-100.00,NNE,15,3.0,11.0,49,0.00,,,0.00,,2013-03-13 00:02:00,
2013-03-12 14:11:00,73.0,57.0,-100.00,NNW,328,5.0,12.0,57,0.00,,,0.00,,2013-03-13 00:11:00,
2013-03-12 14:33:00,73.0,57.0,-100.00,NNW,328,5.0,12.0,57,0.00,,,0.00,,2013-03-13 00:33:00,
2013-03-12 14:42:00,73.0,57.0,-100.00,NNW,328,5.0,12.0,57,0.00,,,0.00,,2013-03-13 00:42:00,
2013-03-12 14:53:00,73.0,57.0,-100.00,NNW,328,5.0,12.0,57,0.00,,,0.00,,2013-03-13 00:53:00,
2013-03-12 15:02:00,73.0,57.0,-100.00,NNW,328,5.0,12.0,57,0.00,,,0.00,,2013-03-13 01:02:00,
2013-03-12 15:11:00,73.0,57.0,-100.00,North,358,3.0,11.0,57,0.00,,,0.00,,2013-03-13 01:11:00,
2013-03-12 15:33:00,73.0,57.0,-100.00,North,358,3.0,11.0,57,0.00,,,0.00,,2013-03-13 01:33:00,
2013-03-12 15:43:00,73.0,57.0,-100.00,North,358,3.0,11.0,57,0.00,,,0.00,,2013-03-13 01:43:00,
2013-03-12 15:52:00,73.0,57.0,-100.00,North,358,3.0,11.0,57,0.00,,,0.00,,2013-03-13 01:52:00,
2013-03-12 16:02:00,73.0,57.0,-100.00,North,358,3.0,11.0,57,0.00,,,0.00,,2013-03-13 02:02:00,
2013-03-12 16:11:00,73.0,58.0,-100.00,NNW,347,4.0,14.0,59,0.00,,,0.00,,2013-03-13 02:11:00,
2013-03-12 16:33:00,73.0,58.0,-100.00,NNW,347,4.0,14.0,59,0.00,,,0.00,,2013-03-13 02:33:00,
2013-03-12 16:43:00,73.0,58.0,-100.00,NNW,347,4.0,14.0,59,0.00,,,0.00,,2013-03-13 02:43:00,
2013-03-12 16:52:00,73.0,58.0,-100.00,NNW,347,4.0,14.0,59,0.00,,,0.00,,2013-03-13 02:52:00,
2013-03-12 17:02:00,73.0,58.0,-100.00,NNW,347,4.0,14.0,59,0.00,,,0.00,,2013-03-13 03:02:00,
2013-03-12 17:11:00,72.0,58.0,-100.00,NE,35,3.0,13.0,62,0.00,,,0.00,,2013-03-13 03:11:00,
2013-03-12 17:32:00,72.0,58.0,-100.00,NE,35,3.0,13.0,62,0.00,,,0.00,,2013-03-13 03:32:00,
2013-03-12 17:42:00,72.0,58.0,-100.00,NE,35,3.0,13.0,62,0.00,,,0.00,,2013-03-13 03:42:00,
2013-03-12 17:52:00,72.0,58.0,-100.00,NE,35,3.0,13.0,62,0.00,,,0.00,,2013-03-13 03:52:00,
2013-03-12 18:02:00,72.0,58.0,-100.00,NE,35,3.0,13.0,62,0.00,,,0.00,,2013-03-13 04:02:00,
2013-03-12 18:11:00,69.0,57.0,-100.00,North,359,3.0,12.0,66,0.00,,,0.00,,2013-03-13 04:11:00,
2013-03-12 18:32:00,69.0,57.0,-100.00,North,359,3.0,12.0,66,0.00,,,0.00,,2013-03-13 04:32:00,
2013-03-12 18:43:00,69.0,57.0,-100.00,North,359,3.0,12.0,66,0.00,,,0.00,,2013-03-13 04:43:00,
2013-03-12 18:53:00,69.0,57.0,-100.00,North,359,3.0,12.0,66,0.00,,,0.00,,2013-03-13 04:53:00,
2013-03-12 19:02:00,69.0,57.0,-100.00,North,359,3.0,12.0,66,0.00,,,0.00,,2013-03-13 05:02:00,
2013-03-12 19:11:00,61.0,53.0,-100.00,North,9,1.0,10.0,76,0.00,,,0.00,,2013-03-13 05:11:00,
2013-03-12 19:32:00,61.0,53.0,-100.00,North,9,1.0,10.0,76,0.00,,,0.00,,2013-03-13 05:32:00,
2013-03-12 19:42:00,61.0,53.0,-100.00,North,9,1.0,10.0,76,0.00,,,0.00,,2013-03-13 05:42:00,
2013-03-12 19:52:00,61.0,53.0,-100.00,North,9,1.0,10.0,76,0.00,,,0.00,,2013-03-13 05:52:00,
2013-03-12 20:02:00,61.0,53.0,-100.00,North,9,1.0,10.0,76,0.00,,,0.00,,2013-03-13 06:02:00,
2013-03-12 20:11:00,60.0,53.0,-100.00,NNE,13,1.0,7.0,77,0.00,,,0.00,,2013-03-13 06:11:00,
2013-03-12 20:33:00,60.0,53.0,-100.00,NNE,13,1.0,7.0,77,0.00,,,0.00,,2013-03-13 06:33:00,
2013-03-12 20:42:00,60.0,53.0,-100.00,NNE,13,1.0,7.0,77,0.00,,,0.00,,2013-03-13 06:42:00,
2013-03-12 20:52:00,60.0,53.0,-100.00,NNE,13,1.0,7.0,77,0.00,,,0.00,,2013-03-13 06:52:00,
2013-03-12 21:02:00,60.0,53.0,-100.00,NNE,13,1.0,7.0,77,0.00,,,0.00,,2013-03-13 07:02:00,
2013-03-12 21:11:00,62.0,55.0,-100.00,NW,325,2.0,8.0,77,0.00,,,0.00,,2013-03-13 07:11:00,
2013-03-12 21:43:00,62.0,55.0,-100.00,NW,325,2.0,8.0,77,0.00,,,0.00,,2013-03-13 07:43:00,
2013-03-12 21:52:00,62.0,55.0,-100.00,NW,325,2.0,8.0,77,0.00,,,0.00,,2013-03-13 07:52:00,
2013-03-12 22:03:00,62.0,55.0,-100.00,NW,325,2.0,8.0,77,0.00,,,0.00,,2013-03-13 08:03:00,
2013-03-12 22:11:00,60.0,52.0,-100.00,NNE,23,3.0,7.0,76,0.00,,,0.00,,2013-03-13 08:11:00,
2013-03-12 22:43:00,60.0,52.0,-100.00,NNE,23,3.0,7.0,76,0.00,,,0.00,,2013-03-13 08:43:00,
2013-03-12 22:53:00,60.0,52.0,-100.00,NNE,23,3.0,7.0,76,0.00,,,0.00,,2013-03-13 08:53:00,
2013-03-12 23:02:00,60.0,52.0,-100.00,NNE,23,3.0,7.0,76,0.00,,,0.00,,2013-03-13 09:02:00,
2013-03-12 23:11:00,60.0,52.0,-100.00,NE,34,0.0,5.0,76,0.00,,,0.00,,2013-03-13 09:11:00,
2013-03-12 23:32:00,60.0,52.0,-100.00,NE,34,0.0,5.0,76,0.00,,,0.00,,2013-03-13 09:32:00,
2013-03-12 23:42:00,60.0,52.0,-100.00,NE,34,0.0,5.0,76,0.00,,,0.00,,2013-03-13 09:42:00,
2013-03-12 23:52:00,60.0,52.0,-100.00,NE,34,0.0,5.0,76,0.00,,,0.00,,2013-03-13 09:52:00,